Location: Pian di Sc�
(43.6333°N, 11.5500°E)
Time: 17:20:42
(UTC+00:00)

COBE Rocket - Pass Details

Date: 07 August 2020
Orbit: 681 x 781 km, 97.1° (Epoch: 17 September)

Event Time Altitude Azimuth Distance (km) Brightness Sun altitude
Exits shadow 01:47:33 52° 209° (SSW) 852 3.8 -21.2°
Maximum altitude 01:48:26 64° 260° (W) 760 3.7 -21.1°
Drops below altitude 10° 01:53:04 10° 342° (NNW) 2,134 6.7 -20.5°
Sets 01:55:20 0° 346° (NNW) 3,052 7.6 -20.3°
